Wind_Speed
23 23 24 24 24 24 23 21 20 22 21 20 20 20 20 20 19 19 18 17 16 16 16 16 16 16 16 16 15 15 14 13 13 12 12 11 11 11 10 10 9 9 8 8 7 7 7 7 6
24 25 25 26 26 25 24 23 23 24 22 22 21 22 21 21 21 20 19 19 18 18 18 18 18 18 18 18 17 17 16 16 15 14 13 13 13 12 12 11 10 10 9 9 8 8 8 8 8
25 26 26 27 27 26 26 24 25 26 25 25 24 23 23 22 22 22 21 20 20 20 20 20 21 20 20 20 20 19 19 18 17 16 16 15 14 14 13 12 12 11 11 10 10 9 9 9 9
26 26 27 28 27 27 27 27 27 27 27 27 26 26 25 24 24 23 22 23 23 22 22 22 22 22 22 21 21 21 21 20 19 18 18 16 16 15 15 14 14 13 12 12 12 11 11 11 11
27 27 28 28 27 28 29 29 29 29 29 28 28 27 26 26 26 25 24 25 25 25 24 24 23 23 23 22 22 22 21 22 21 20 19 18 18 17 17 16 16 15 14 14 14 13 13 13 13
29 29 29 28 27 28 30 30 30 31 31 30 29 29 28 28 27 27 27 27 26 26 26 25 25 25 24 24 23 23 23 23 23 22 21 20 20 20 19 18 18 17 17 16 16 15 15 15 15
30 30 30 29 28 29 30 30 32 33 33 32 31 31 30 30 29 29 29 28 28 27 27 27 27 27 26 26 25 25 24 24 24 24 24 22 22 21 20 20 20 19 19 19 18 18 18 18 18
31 32 31 30 30 30 31 32 33 34 34 33 33 33 31 31 31 30 30 30 29 29 28 28 27 28 27 27 27 26 26 26 25 25 26 25 24 23 22 22 22 21 21 21 21 20 20 20 20
32 33 32 32 32 33 32 33 34 35 35 34 34 34 33 33 33 32 31 31 31 30 30 30 29 29 29 29 28 27 27 27 27 27 27 27 26 26 25 25 24 24 24 24 23 23 23 23 23
33 33 32 33 33 34 34 34 34 35 35 35 35 34 34 35 35 34 33 32 32 31 31 31 31 30 30 30 29 28 28 28 28 28 28 28 28 28 28 27 27 27 26 26 26 26 26 26 26
33 33 33 33 34 35 34 34 34 34 35 35 35 34 35 35 35 35 34 34 33 34 33 32 31 31 31 30 30 30 30 30 30 30 30 30 30 30 30 30 30 29 29 29 29 29 29 28 28
33 32 33 33 34 35 35 35 35 35 35 34 35 35 35 35 36 36 35 35 35 34 33 31 31 31 31 31 31 32 32 32 32 32 32 32 32 32 31 31 31 31 31 31 31 31 31 31 31
32 32 33 33 33 35 35 35 35 35 34 34 34 35 36 37 36 36 36 36 35 34 34 33 33 33 33 33 33 33 34 34 34 34 33 33 33 33 33 33 33 33 33 33 33 33 33 34 34
32 32 33 33 33 34 35 35 35 34 34 34 35 35 36 36 37 36 37 37 36 36 36 36 36 36 35 35 35 35 36 37 37 37 35 35 35 35 35 35 35 35 35 35 35 35 35 36 36
31 32 33 33 33 33 35 35 34 34 34 34 35 35 35 36 37 37 37 37 37 37 37 37 37 37 38 38 38 38 38 38 38 38 38 37 37 37 38 38 38 38 37 37 37 37 37 38 38
32 32 33 32 33 33 35 33 32 33 34 34 34 34 35 35 36 37 37 37 38 38 38 38 38 39 40 40 41 41 41 41 41 40 40 40 40 40 40 40 39 39 39 40 39 39 40 40 40
32 32 31 31 31 32 33 32 32 32 33 34 34 34 35 35 36 36 37 38 38 39 39 39 39 40 41 42 43 43 42 42 43 42 42 42 42 42 42 42 42 42 41 41 41 41 41 41 41
30 31 31 31 31 31 32 32 32 32 32 32 33 33 34 35 36 37 37 37 38 39 39 40 41 42 43 43 43 44 43 44 45 44 44 45 44 44 43 43 43 43 42 42 42 42 41 41 42
29 30 30 30 31 31 31 32 32 31 32 33 33 33 33 34 36 37 38 38 38 39 39 40 40 42 43 44 43 43 44 44 45 45 45 45 46 45 44 44 43 43 42 42 43 43 43 43 42
30 30 29 30 30 31 31 32 32 32 32 33 33 33 33 34 35 36 38 38 39 39 40 40 41 42 43 43 44 44 45 45 45 45 45 45 45 44 45 45 44 43 44 45 45 45 45 45 45
29 29 29 29 30 30 31 31 31 30 31 32 32 33 33 33 34 35 37 38 39 39 40 40 40 41 41 42 43 43 45 46 46 45 46 45 45 45 46 46 46 46 46 46 47 47 47 46 46
29 29 29 29 30 30 31 31 29 30 30 31 31 32 33 33 33 35 36 37 39 39 40 41 41 41 42 41 41 42 43 44 44 45 45 45 46 46 47 47 48 48 48 47 47 47 47 48 48
29 29 29 30 30 31 30 32 30 30 30 30 31 31 32 33 34 35 37 38 39 39 40 40 41 41 41 41 41 42 42 42 43 44 44 45 46 47 48 49 50 49 49 48 47 47 47 47 47
29 29 29 30 31 32 30 32 32 31 31 31 31 32 33 34 35 35 36 37 38 39 39 40 41 41 41 41 41 41 41 42 42 44 44 45 46 48 48 48 49 48 48 48 48 48 48 48 48
29 29 29 30 31 33 32 33 32 31 32 32 32 32 32 33 34 35 35 36 37 38 39 40 41 41 42 42 41 41 41 42 43 44 45 45 45 46 47 47 47 47 47 48 48 48 48 49 49
28 28 29 30 31 32 32 33 32 32 32 32 32 32 32 33 34 35 36 36 36 37 38 39 40 40 41 41 41 42 42 42 43 44 45 46 46 46 45 45 45 46 46 47 48 49 48 49 49
29 29 29 30 31 32 32 33 32 32 32 32 32 32 32 33 33 34 35 36 36 37 38 39 39 39 40 40 41 42 43 43 44 45 45 45 46 47 46 46 46 47 48 48 50 50 50 50 50
29 29 30 30 32 33 32 32 32 31 32 32 33 33 33 33 33 33 33 35 36 37 37 38 38 39 40 41 41 42 43 44 44 44 45 45 46 46 46 45 46 47 48 49 50 51 51 51 51
27 28 29 30 31 32 32 31 30 31 31 31 31 32 32 32 32 32 33 34 35 36 36 38 38 39 40 40 41 42 42 43 43 44 44 46 47 47 46 47 47 47 48 49 50 50 50 51 51
27 28 29 30 31 32 33 31 30 30 31 32 32 32 32 33 33 33 33 33 34 35 36 37 37 38 38 38 39 40 40 41 42 43 44 45 45 46 46 47 48 49 49 49 49 50 50 50 50
Wind_Direction
251 251 251 249 249 250 251 252 252 252 252 253 255 256 257 258 260 262 263 262 261 260 258 257 257 257 259 259 257 256 256 258 261 263 262 263 265 266 266 266 262 261 263 267 272 273 274 274 269
253 251 250 250 249 250 251 252 253 254 254 254 253 254 256 258 260 262 263 263 262 260 258 259 258 258 258 259 258 258 259 259 260 262 262 262 263 264 265 265 262 261 262 265 270 273 274 276 272
254 252 251 250 250 250 252 253 254 254 254 253 253 254 257 259 261 262 263 263 262 262 261 260 258 257 257 257 257 257 258 258 257 259 260 261 263 263 263 263 263 263 263 265 268 271 273 274 274
254 254 253 253 253 251 251 252 253 255 255 254 254 255 256 258 259 260 261 262 262 262 261 260 258 256 256 256 257 257 257 257 256 257 258 258 261 262 262 261 262 263 265 266 268 269 270 273 273
254 255 255 254 254 252 252 253 254 254 255 255 255 255 257 257 258 259 261 263 263 262 261 258 258 257 256 255 256 257 257 257 256 256 257 257 259 260 262 261 261 263 264 267 270 271 271 273 274
254 255 255 256 256 255 254 254 254 254 254 255 255 255 256 257 257 258 261 263 263 262 261 260 258 257 257 255 254 255 256 257 257 257 257 258 258 259 260 261 261 263 264 267 270 271 272 272 273
255 255 256 256 257 256 254 254 253 254 255 255 257 256 255 256 257 258 260 261 261 260 261 261 258 256 255 255 254 255 256 257 258 258 258 259 259 260 260 261 261 263 266 268 270 271 272 273 273
256 256 256 256 257 257 257 256 255 254 254 256 257 258 257 257 258 258 259 259 259 259 260 261 260 257 255 254 254 255 255 257 258 258 259 260 260 261 262 263 264 265 266 268 269 271 272 273 274
256 256 256 257 258 258 258 258 257 256 256 255 257 258 259 257 257 256 257 257 258 258 259 260 261 258 255 254 253 254 256 257 258 259 259 260 260 261 262 263 263 264 266 268 269 270 271 272 274
256 257 258 259 259 258 258 258 259 258 257 257 257 259 259 258 257 256 256 256 257 257 259 260 260 257 255 255 254 254 256 257 258 260 260 260 260 260 261 262 263 264 265 267 268 270 271 272 273
257 259 259 258 259 259 259 259 259 260 258 258 258 258 258 257 256 255 255 255 256 257 259 259 259 256 254 254 255 255 257 259 259 261 260 260 260 261 261 262 263 265 266 266 266 268 270 272 272
258 259 259 259 259 260 260 260 259 258 259 259 259 258 258 257 256 255 254 254 256 257 257 256 255 255 255 256 256 256 257 259 260 261 261 261 262 261 262 263 264 265 265 266 266 266 268 270 271
259 258 259 260 260 260 260 260 259 259 259 260 260 259 258 257 255 255 254 254 255 256 255 255 256 256 256 258 258 259 259 259 261 262 262 262 262 261 262 263 264 265 265 266 267 267 267 268 269
259 260 260 261 260 261 261 260 259 259 258 258 259 259 259 257 255 255 255 254 255 255 255 256 257 258 258 258 259 260 260 260 261 262 262 261 262 263 264 265 266 267 268 267 268 268 268 267 269
260 261 260 260 261 262 261 259 259 259 258 258 259 259 259 257 256 255 256 255 255 255 256 257 259 259 259 259 260 260 260 260 261 261 261 262 263 264 266 267 268 269 269 269 268 269 269 269 269
262 262 262 261 262 262 261 260 260 259 258 259 259 259 260 257 256 256 257 257 256 256 257 258 260 261 260 261 262 261 261 261 260 260 261 263 264 265 267 268 269 270 269 270 270 270 270 270 271
263 265 265 264 263 263 262 262 260 258 259 260 261 261 261 258 257 257 258 259 259 258 258 260 261 262 262 263 263 262 261 261 260 260 262 263 264 266 267 268 269 270 270 270 270 271 271 271 271
266 267 267 266 265 265 264 264 263 261 261 262 262 263 262 260 259 259 258 260 260 260 259 260 262 263 264 264 264 263 262 261 261 261 262 263 265 266 267 268 269 270 269 270 271 271 271 271 271
266 267 267 266 266 266 264 264 263 263 262 262 263 264 264 262 260 260 259 259 260 261 261 261 262 263 264 264 264 263 263 263 263 263 263 264 265 266 267 269 270 270 270 270 271 271 271 271 271
265 267 268 267 267 267 265 265 265 265 265 264 263 264 264 264 262 260 260 260 261 263 263 262 263 264 265 264 264 263 264 264 264 263 263 264 265 266 267 268 268 269 270 270 271 272 273 272 271
265 267 268 269 269 269 268 267 266 267 267 265 264 264 265 266 264 262 262 262 263 263 264 264 265 265 266 264 264 264 264 264 263 263 263 264 265 265 267 269 268 269 271 271 271 271 272 273 273
265 267 269 270 271 272 271 271 269 269 268 267 267 266 266 266 266 265 264 264 265 265 265 266 267 267 266 265 265 264 264 264 263 263 263 264 265 266 268 269 269 269 269 270 271 271 272 273 273
266 267 269 270 271 273 273 273 271 271 268 268 268 268 268 267 268 267 266 266 266 267 268 268 268 268 267 266 266 265 264 264 263 263 263 264 265 266 268 269 270 270 269 269 271 271 271 272 273
266 268 269 271 272 274 275 276 274 273 271 270 270 270 270 269 269 269 269 268 269 269 269 268 269 268 267 266 266 266 265 263 263 263 263 264 265 266 268 269 269 268 268 269 271 272 272 272 274
267 270 272 273 274 275 276 276 276 274 274 272 271 271 272 271 271 271 272 272 271 271 270 269 269 269 268 267 266 266 265 265 265 265 264 264 266 267 267 268 268 268 269 269 270 271 272 272 272
269 270 273 275 277 277 277 276 276 276 276 274 272 272 272 274 273 273 273 274 273 273 272 272 271 269 268 267 267 267 267 266 265 265 265 265 266 268 268 267 268 269 270 270 270 271 272 273 273
270 271 273 275 277 278 278 278 276 276 276 276 275 274 274 275 276 276 277 276 276 276 274 273 271 269 268 267 268 268 268 267 266 266 266 266 266 269 269 268 269 270 270 271 271 271 272 272 272
271 273 274 274 277 278 279 280 281 278 277 277 276 276 276 277 277 277 277 278 277 277 276 274 272 269 268 268 268 268 268 267 267 266 267 267 268 271 271 271 271 271 271 271 271 271 271 271 272
271 272 274 275 275 277 280 281 281 280 278 277 279 279 279 277 277 277 278 280 280 278 277 275 273 271 270 269 268 268 268 268 267 267 267 268 270 271 271 272 272 272 273 273 272 272 272 272 272
271 273 275 277 277 277 278 281 281 281 280 280 280 280 280 279 280 280 280 281 282 280 277 275 273 272 271 270 269 269 269 269 267 267 268 270 271 271 272 272 273 273 273 273 273 273 273 273 274
Height
5821 5822 5824 5825 5827 5828 5829 5831 5832 5833 5835 5836 5837 5838 5839 5840 5841 5843 5842 5842 5842 5843 5843 5844 5845 5845 5845 5846 5846 5847 5847 5847 5848 5848 5848 5849 5849 5849 5850 5850 5850 5850 5851 5851 5851 5851 5851 5851 5851
5816 5818 5819 5820 5821 5823 5825 5827 5828 5829 5831 5833 5834 5834 5835 5836 5837 5837 5838 5838 5839 5839 5840 5840 5841 5841 5842 5842 5843 5844 5844 5845 5845 5845 5846 5846 5847 5847 5848 5848 5848 5848 5849 5849 5849 5849 5849 5849 5849
5811 5812 5814 5815 5817 5819 5821 5823 5823 5824 5826 5828 5829 5830 5831 5832 5833 5833 5834 5834 5835 5835 5836 5836 5837 5837 5838 5838 5839 5840 5840 5841 5842 5842 5843 5844 5844 5845 5845 5846 5846 5846 5847 5847 5847 5847 5847 5847 5847
5807 5808 5809 5811 5812 5814 5816 5817 5818 5819 5821 5823 5824 5826 5827 5828 5828 5829 5829 5830 5830 5831 5831 5831 5832 5832 5833 5834 5835 5835 5836 5837 5838 5839 5839 5840 5841 5842 5842 5843 5844 5844 5844 5844 5845 5845 5845 5845 5845
5801 5802 5804 5805 5807 5809 5810 5811 5813 5814 5815 5817 5819 5820 5821 5822 5823 5824 5824 5824 5825 5825 5826 5826 5827 5827 5828 5829 5830 5831 5832 5833 5834 5835 5835 5836 5837 5838 5839 5840 5841 5841 5842 5842 5842 5842 5842 5842 5842
5796 5797 5798 5800 5802 5804 5805 5806 5807 5808 5810 5811 5813 5814 5815 5816 5817 5818 5818 5819 5819 5819 5820 5820 5821 5822 5823 5824 5825 5826 5827 5828 5829 5830 5831 5832 5833 5834 5835 5836 5837 5838 5838 5839 5839 5839 5839 5839 5839
5791 5791 5793 5795 5796 5797 5798 5799 5800 5802 5803 5805 5806 5808 5809 5810 5811 5812 5812 5812 5813 5813 5814 5814 5815 5816 5817 5819 5820 5821 5822 5823 5824 5825 5826 5828 5829 5830 5831 5832 5833 5834 5834 5835 5835 5836 5836 5836 5836
5783 5786 5787 5789 5790 5791 5792 5793 5794 5795 5796 5799 5800 5801 5803 5803 5805 5805 5806 5806 5806 5807 5808 5808 5809 5810 5812 5813 5815 5816 5817 5818 5819 5820 5821 5823 5824 5825 5826 5827 5828 5829 5830 5830 5831 5831 5832 5832 5832
5777 5780 5781 5783 5783 5784 5785 5785 5787 5788 5789 5791 5792 5794 5796 5796 5797 5798 5799 5799 5800 5801 5802 5802 5803 5804 5805 5807 5809 5810 5811 5812 5813 5814 5816 5817 5818 5819 5821 5822 5822 5823 5824 5825 5826 5826 5827 5827 5827
5770 5772 5775 5776 5776 5776 5777 5778 5779 5781 5782 5783 5785 5786 5787 5788 5789 5790 5792 5793 5794 5794 5795 5796 5797 5798 5799 5801 5802 5804 5805 5806 5807 5808 5809 5811 5812 5813 5814 5815 5816 5817 5818 5819 5820 5821 5821 5821 5822
5763 5766 5767 5768 5768 5769 5770 5771 5772 5773 5775 5776 5777 5778 5779 5780 5781 5783 5784 5786 5787 5787 5788 5789 5790 5791 5793 5794 5796 5798 5799 5800 5801 5802 5803 5804 5805 5806 5807 5809 5810 5811 5811 5812 5813 5814 5815 5815 5815
5757 5758 5759 5760 5761 5761 5762 5763 5765 5765 5767 5768 5769 5770 5771 5772 5773 5775 5777 5778 5780 5781 5781 5782 5783 5785 5787 5788 5789 5791 5792 5793 5794 5795 5796 5797 5798 5799 5800 5802 5803 5804 5804 5805 5806 5807 5808 5808 5809
5750 5751 5752 5753 5753 5754 5754 5755 5757 5758 5760 5760 5761 5761 5762 5764 5766 5767 5769 5771 5773 5774 5775 5776 5777 5779 5781 5782 5782 5783 5784 5785 5787 5787 5788 5789 5791 5792 5793 5794 5795 5796 5797 5798 5799 5799 5800 5801 5801
5743 5744 5745 5745 5746 5746 5747 5747 5749 5751 5752 5752 5753 5753 5754 5755 5758 5760 5761 5764 5765 5767 5768 5769 5771 5772 5773 5774 5775 5776 5777 5778 5779 5780 5781 5782 5783 5784 5786 5787 5788 5788 5789 5789 5790 5791 5791 5792 5792
5736 5737 5738 5738 5739 5739 5739 5740 5742 5743 5743 5744 5745 5745 5746 5748 5750 5752 5754 5756 5758 5759 5761 5762 5763 5764 5766 5767 5767 5768 5769 5770 5771 5772 5773 5774 5775 5777 5778 5779 5780 5780 5780 5781 5781 5782 5782 5783 5783
5729 5730 5731 5732 5731 5731 5733 5734 5735 5734 5736 5736 5737 5738 5739 5740 5742 5744 5746 5748 5750 5751 5753 5754 5755 5756 5757 5758 5759 5760 5760 5761 5762 5763 5764 5766 5767 5768 5769 5770 5771 5771 5772 5772 5772 5772 5772 5773 5773
5722 5723 5724 5724 5724 5724 5725 5726 5727 5727 5728 5729 5730 5731 5731 5732 5734 5736 5738 5740 5741 5743 5745 5746 5747 5748 5748 5749 5750 5750 5751 5752 5752 5754 5755 5757 5758 5759 5760 5761 5761 5762 5762 5763 5763 5762 5762 5763 5763
5716 5717 5717 5716 5717 5718 5718 5719 5719 5720 5721 5721 5722 5723 5724 5725 5727 5728 5730 5732 5733 5734 5736 5737 5738 5738 5738 5739 5740 5740 5741 5742 5743 5744 5746 5747 5748 5750 5751 5751 5752 5752 5753 5753 5753 5753 5752 5752 5753
5709 5709 5710 5710 5710 5710 5711 5711 5712 5712 5713 5714 5715 5715 5717 5718 5719 5720 5722 5723 5724 5725 5726 5727 5728 5728 5729 5729 5730 5730 5731 5732 5733 5734 5735 5737 5738 5739 5740 5741 5741 5742 5742 5743 5743 5743 5743 5742 5742
5703 5703 5703 5703 5703 5703 5704 5705 5705 5705 5706 5707 5708 5709 5710 5710 5711 5712 5713 5714 5715 5716 5717 5718 5718 5718 5718 5719 5719 5720 5721 5722 5723 5724 5725 5726 5728 5729 5730 5731 5731 5732 5732 5732 5732 5732 5732 5732 5731
5696 5697 5697 5696 5696 5696 5696 5698 5698 5698 5699 5699 5700 5701 5702 5702 5703 5704 5704 5705 5706 5707 5707 5708 5708 5708 5708 5708 5709 5710 5711 5711 5712 5713 5714 5716 5717 5718 5719 5719 5720 5720 5721 5721 5721 5721 5720 5721 5720
5690 5690 5690 5690 5689 5690 5690 5689 5692 5691 5692 5692 5693 5693 5694 5694 5695 5695 5696 5697 5697 5698 5698 5698 5698 5699 5698 5698 5698 5699 5700 5701 5702 5703 5704 5705 5706 5707 5708 5708 5708 5709 5709 5710 5709 5709 5709 5709 5709
5684 5684 5683 5683 5682 5682 5683 5682 5685 5684 5684 5685 5685 5685 5686 5686 5687 5687 5687 5688 5688 5688 5688 5688 5688 5688 5688 5688 5688 5689 5689 5690 5691 5692 5694 5695 5696 5696 5697 5696 5696 5697 5697 5697 5697 5697 5697 5696 5697
5677 5677 5677 5676 5675 5675 5677 5675 5676 5677 5677 5677 5677 5678 5678 5678 5678 5678 5678 5678 5678 5678 5678 5678 5678 5677 5677 5677 5678 5678 5679 5680 5681 5682 5683 5684 5685 5685 5685 5684 5684 5685 5685 5685 5685 5685 5685 5685 5684
5670 5671 5670 5669 5668 5668 5669 5668 5669 5670 5669 5669 5669 5669 5669 5670 5670 5669 5669 5669 5669 5668 5668 5668 5667 5667 5667 5667 5668 5668 5669 5669 5670 5671 5672 5673 5673 5673 5673 5673 5673 5673 5673 5673 5673 5673 5673 5672 5672
5663 5664 5664 5663 5661 5662 5662 5661 5663 5662 5661 5661 5661 5661 5661 5661 5661 5660 5660 5659 5659 5658 5658 5657 5657 5657 5656 5656 5657 5657 5658 5659 5659 5660 5661 5661 5662 5662 5661 5661 5660 5661 5661 5661 5661 5661 5661 5660 5659
5656 5656 5656 5655 5654 5654 5654 5654 5655 5654 5654 5653 5653 5653 5653 5652 5652 5651 5651 5650 5649 5649 5648 5647 5647 5646 5646 5646 5646 5647 5647 5648 5648 5648 5649 5649 5649 5649 5649 5648 5649 5649 5648 5648 5648 5648 5648 5648 5647
5649 5649 5649 5647 5646 5646 5646 5647 5647 5646 5646 5645 5645 5644 5644 5644 5643 5642 5641 5640 5640 5639 5638 5637 5636 5636 5636 5636 5636 5636 5636 5637 5637 5637 5637 5638 5637 5637 5637 5636 5636 5636 5636 5635 5635 5635 5634 5634 5634
5643 5642 5641 5640 5639 5639 5638 5642 5640 5638 5637 5637 5637 5636 5635 5635 5634 5633 5632 5631 5630 5629 5628 5627 5626 5626 5625 5625 5625 5625 5625 5625 5626 5626 5626 5626 5626 5625 5625 5624 5624 5623 5623 5622 5621 5621 5621 5620 5620
5635 5635 5634 5634 5633 5632 5631 5635 5632 5630 5629 5629 5628 5627 5627 5626 5625 5624 5623 5622 5621 5619 5618 5617 5616 5615 5615 5615 5615 5615 5615 5614 5614 5614 5614 5614 5613 5613 5612 5612 5611 5611 5610 5609 5608 5608 5607 5607 5607